Time,TemperatureF,DewpointF,PressureIn,WindDirection,WindDirectionDegrees,WindSpeedMPH,WindSpeedGustMPH,Humidity,HourlyPrecipIn,Conditions,Clouds,dailyrainin,SoftwareType,DateUTC
2013-02-11 00:00:00,15.0,4.0,29.85,ENE,67,0.0,0.0,55,0.00,,,0.00,Rainwise IP-100,2013-02-11 05:00:00,
2013-02-11 00:05:00,15.0,4.0,29.85,ENE,67,0.0,0.0,55,0.00,,,0.00,Rainwise IP-100,2013-02-11 05:05:00,
2013-02-11 00:10:00,15.0,4.0,29.85,ENE,67,1.0,1.0,55,0.00,,,0.00,Rainwise IP-100,2013-02-11 05:10:00,
2013-02-11 00:15:00,16.0,4.0,29.85,ENE,67,1.0,1.0,55,0.00,,,0.00,Rainwise IP-100,2013-02-11 05:15:00,
2013-02-11 00:20:00,16.0,4.0,29.84,ENE,67,0.0,1.0,55,0.00,,,0.00,Rainwise IP-100,2013-02-11 05:20:00,
2013-02-11 00:25:00,16.0,4.0,29.84,ENE,67,0.0,0.0,55,0.00,,,0.00,Rainwise IP-100,2013-02-11 05:25:00,
2013-02-11 00:30:00,15.0,4.0,29.84,ENE,67,0.0,0.0,56,0.00,,,0.00,Rainwise IP-100,2013-02-11 05:30:00,
2013-02-11 00:35:00,15.0,4.0,29.84,ENE,67,0.0,0.0,55,0.00,,,0.00,Rainwise IP-100,2013-02-11 05:35:00,
2013-02-11 00:40:00,15.0,4.0,29.84,ENE,67,0.0,0.0,55,0.00,,,0.00,Rainwise IP-100,2013-02-11 05:40:00,
2013-02-11 00:45:00,15.0,4.0,29.84,ENE,67,0.0,0.0,55,0.00,,,0.00,Rainwise IP-100,2013-02-11 05:45:00,
2013-02-11 00:50:00,16.0,4.0,29.83,ENE,67,0.0,0.0,55,0.00,,,0.00,Rainwise IP-100,2013-02-11 05:50:00,
2013-02-11 00:55:00,16.0,4.0,29.83,ENE,67,0.0,0.0,55,0.00,,,0.00,Rainwise IP-100,2013-02-11 05:55:00,
2013-02-11 01:00:00,16.0,4.0,29.83,ENE,67,0.0,0.0,56,0.00,,,0.00,Rainwise IP-100,2013-02-11 06:00:00,
2013-02-11 01:05:00,16.0,4.0,29.83,ENE,67,0.0,0.0,57,0.00,,,0.00,Rainwise IP-100,2013-02-11 06:05:00,
2013-02-11 01:10:00,16.0,4.0,29.82,ENE,67,0.0,0.0,58,0.00,,,0.00,Rainwise IP-100,2013-02-11 06:10:00,
2013-02-11 01:15:00,16.0,4.0,29.82,ENE,67,1.0,2.0,59,0.00,,,0.00,Rainwise IP-100,2013-02-11 06:15:00,
2013-02-11 01:20:00,16.0,4.0,29.81,ENE,67,0.0,2.0,58,0.00,,,0.00,Rainwise IP-100,2013-02-11 06:20:00,
2013-02-11 01:25:00,16.0,4.0,29.81,ENE,67,1.0,2.0,58,0.00,,,0.00,Rainwise IP-100,2013-02-11 06:25:00,
2013-02-11 01:30:00,16.0,4.0,29.81,ENE,67,0.0,1.0,58,0.00,,,0.00,Rainwise IP-100,2013-02-11 06:30:00,
2013-02-11 01:35:00,16.0,4.0,29.81,ENE,67,0.0,0.0,58,0.00,,,0.00,Rainwise IP-100,2013-02-11 06:35:00,
2013-02-11 01:40:00,15.0,4.0,29.82,ENE,67,0.0,0.0,58,0.00,,,0.00,Rainwise IP-100,2013-02-11 06:40:00,
2013-02-11 01:45:00,15.0,4.0,29.82,ENE,67,0.0,0.0,58,0.00,,,0.00,Rainwise IP-100,2013-02-11 06:45:00,
2013-02-11 01:50:00,15.0,4.0,29.82,ENE,67,0.0,0.0,59,0.00,,,0.00,Rainwise IP-100,2013-02-11 06:50:00,
2013-02-11 01:55:00,15.0,4.0,29.82,ENE,67,0.0,0.0,59,0.00,,,0.00,Rainwise IP-100,2013-02-11 06:55:00,
2013-02-11 02:00:00,15.0,4.0,29.82,ENE,67,0.0,0.0,59,0.00,,,0.00,Rainwise IP-100,2013-02-11 07:00:00,
2013-02-11 02:05:00,15.0,4.0,29.82,ENE,67,0.0,0.0,59,0.00,,,0.00,Rainwise IP-100,2013-02-11 07:05:00,
2013-02-11 02:10:00,15.0,4.0,29.82,ENE,67,0.0,0.0,59,0.00,,,0.00,Rainwise IP-100,2013-02-11 07:10:00,
2013-02-11 02:15:00,15.0,4.0,29.82,ENE,67,0.0,0.0,59,0.00,,,0.00,Rainwise IP-100,2013-02-11 07:15:00,
2013-02-11 02:20:00,15.0,4.0,29.82,ENE,67,0.0,0.0,59,0.00,,,0.00,Rainwise IP-100,2013-02-11 07:20:00,
2013-02-11 02:25:00,15.0,4.0,29.82,ENE,67,0.0,0.0,59,0.00,,,0.00,Rainwise IP-100,2013-02-11 07:25:00,
2013-02-11 02:30:00,15.0,4.0,29.82,ENE,67,0.0,0.0,59,0.00,,,0.00,Rainwise IP-100,2013-02-11 07:30:00,
2013-02-11 02:35:00,15.0,4.0,29.82,ENE,67,0.0,0.0,59,0.00,,,0.00,Rainwise IP-100,2013-02-11 07:35:00,
2013-02-11 02:40:00,15.0,4.0,29.82,ENE,67,0.0,0.0,59,0.00,,,0.00,Rainwise IP-100,2013-02-11 07:40:00,
2013-02-11 02:45:00,15.0,4.0,29.82,ENE,67,0.0,0.0,59,0.00,,,0.00,Rainwise IP-100,2013-02-11 07:45:00,
2013-02-11 02:50:00,15.0,4.0,29.82,ENE,67,0.0,0.0,59,0.00,,,0.00,Rainwise IP-100,2013-02-11 07:50:00,
2013-02-11 02:55:00,15.0,4.0,29.82,ENE,67,0.0,0.0,59,0.00,,,0.00,Rainwise IP-100,2013-02-11 07:55:00,
2013-02-11 03:00:00,15.0,4.0,29.82,ENE,67,0.0,0.0,59,0.00,,,0.00,Rainwise IP-100,2013-02-11 08:00:00,
2013-02-11 03:05:00,15.0,4.0,29.82,ENE,67,0.0,0.0,59,0.00,,,0.00,Rainwise IP-100,2013-02-11 08:05:00,
2013-02-11 03:10:00,15.0,4.0,29.82,ENE,67,0.0,0.0,59,0.00,,,0.00,Rainwise IP-100,2013-02-11 08:10:00,
2013-02-11 03:15:00,15.0,4.0,29.82,ENE,67,0.0,0.0,59,0.00,,,0.00,Rainwise IP-100,2013-02-11 08:15:00,
2013-02-11 03:20:00,15.0,4.0,29.82,ENE,67,0.0,0.0,59,0.00,,,0.00,Rainwise IP-100,2013-02-11 08:20:00,
2013-02-11 03:25:00,15.0,4.0,29.82,ENE,67,0.0,0.0,59,0.00,,,0.00,Rainwise IP-100,2013-02-11 08:25:00,
2013-02-11 03:30:00,15.0,4.0,29.82,ENE,67,0.0,0.0,59,0.00,,,0.00,Rainwise IP-100,2013-02-11 08:30:00,
2013-02-11 03:35:00,15.0,4.0,29.82,ENE,67,0.0,0.0,59,0.00,,,0.00,Rainwise IP-100,2013-02-11 08:35:00,
2013-02-11 03:40:00,15.0,4.0,29.82,ENE,67,0.0,0.0,59,0.00,,,0.00,Rainwise IP-100,2013-02-11 08:40:00,
2013-02-11 03:45:00,15.0,4.0,29.82,ENE,67,0.0,0.0,59,0.00,,,0.00,Rainwise IP-100,2013-02-11 08:45:00,
2013-02-11 03:50:00,16.0,8.0,29.77,ENE,67,0.0,0.0,66,0.00,,,0.00,Rainwise IP-100,2013-02-11 08:50:00,
2013-02-11 03:55:00,16.0,8.0,29.77,ENE,67,0.0,0.0,65,0.00,,,0.00,Rainwise IP-100,2013-02-11 08:55:00,
2013-02-11 04:00:00,16.0,8.0,29.77,ENE,67,0.0,0.0,67,0.00,,,0.00,Rainwise IP-100,2013-02-11 09:00:00,
2013-02-11 04:05:00,16.0,8.0,29.77,ENE,67,0.0,0.0,65,0.00,,,0.00,Rainwise IP-100,2013-02-11 09:05:00,
2013-02-11 04:10:00,17.0,8.0,29.77,ENE,67,0.0,0.0,63,0.00,,,0.00,Rainwise IP-100,2013-02-11 09:10:00,
2013-02-11 04:15:00,16.0,8.0,29.77,ENE,67,0.0,0.0,67,0.00,,,0.00,Rainwise IP-100,2013-02-11 09:15:00,
2013-02-11 04:20:00,16.0,8.0,29.77,ENE,67,0.0,0.0,68,0.00,,,0.00,Rainwise IP-100,2013-02-11 09:20:00,
2013-02-11 04:25:00,16.0,8.0,29.77,ENE,67,0.0,1.0,69,0.00,,,0.00,Rainwise IP-100,2013-02-11 09:25:00,
2013-02-11 04:30:00,16.0,8.0,29.77,ENE,67,0.0,0.0,67,0.00,,,0.00,Rainwise IP-100,2013-02-11 09:30:00,
2013-02-11 04:35:00,16.0,8.0,29.77,ENE,67,0.0,0.0,63,0.00,,,0.00,Rainwise IP-100,2013-02-11 09:35:00,
2013-02-11 04:40:00,16.0,8.0,29.76,ENE,67,0.0,1.0,65,0.00,,,0.00,Rainwise IP-100,2013-02-11 09:40:00,
2013-02-11 04:45:00,17.0,8.0,29.76,ENE,67,0.0,1.0,63,0.00,,,0.00,Rainwise IP-100,2013-02-11 09:45:00,
2013-02-11 04:50:00,17.0,8.0,29.75,ENE,67,0.0,0.0,63,0.00,,,0.00,Rainwise IP-100,2013-02-11 09:50:00,
2013-02-11 04:55:00,17.0,8.0,29.75,ENE,67,0.0,0.0,63,0.00,,,0.00,Rainwise IP-100,2013-02-11 09:55:00,
2013-02-11 05:00:00,17.0,8.0,29.74,ENE,67,0.0,0.0,63,0.00,,,0.00,Rainwise IP-100,2013-02-11 10:00:00,
2013-02-11 05:05:00,17.0,8.0,29.74,ENE,67,0.0,1.0,64,0.00,,,0.00,Rainwise IP-100,2013-02-11 10:05:00,
2013-02-11 05:10:00,17.0,11.0,29.74,ENE,67,0.0,1.0,65,0.00,,,0.00,Rainwise IP-100,2013-02-11 10:10:00,
2013-02-11 05:15:00,17.0,11.0,29.74,ENE,67,0.0,0.0,65,0.00,,,0.00,Rainwise IP-100,2013-02-11 10:15:00,
2013-02-11 05:20:00,18.0,11.0,29.74,ENE,67,0.0,0.0,67,0.00,,,0.00,Rainwise IP-100,2013-02-11 10:20:00,
2013-02-11 05:25:00,18.0,11.0,29.74,ENE,67,0.0,1.0,66,0.00,,,0.00,Rainwise IP-100,2013-02-11 10:25:00,
2013-02-11 05:30:00,18.0,11.0,29.73,ENE,67,1.0,3.0,66,0.00,,,0.00,Rainwise IP-100,2013-02-11 10:30:00,
2013-02-11 05:35:00,18.0,11.0,29.73,ENE,67,0.0,1.0,65,0.00,,,0.00,Rainwise IP-100,2013-02-11 10:35:00,
2013-02-11 05:40:00,18.0,11.0,29.74,ENE,67,0.0,0.0,65,0.00,,,0.00,Rainwise IP-100,2013-02-11 10:40:00,
2013-02-11 05:45:00,18.0,11.0,29.74,ENE,67,0.0,0.0,65,0.00,,,0.00,Rainwise IP-100,2013-02-11 10:45:00,
2013-02-11 05:50:00,18.0,8.0,29.74,ENE,67,0.0,1.0,64,0.00,,,0.00,Rainwise IP-100,2013-02-11 10:50:00,
2013-02-11 05:55:00,18.0,8.0,29.74,SSE,157,0.0,1.0,64,0.00,,,0.00,Rainwise IP-100,2013-02-11 10:55:00,
2013-02-11 06:00:00,18.0,8.0,29.75,SSE,157,0.0,4.0,64,0.00,,,0.00,Rainwise IP-100,2013-02-11 11:00:00,
2013-02-11 06:05:00,18.0,8.0,29.75,SSE,157,0.0,0.0,63,0.00,,,0.00,Rainwise IP-100,2013-02-11 11:05:00,
2013-02-11 06:10:00,19.0,11.0,29.74,SSE,157,0.0,3.0,63,0.00,,,0.00,Rainwise IP-100,2013-02-11 11:10:00,
2013-02-11 06:15:00,20.0,11.0,29.74,SSE,157,0.0,2.0,63,0.00,,,0.00,Rainwise IP-100,2013-02-11 11:15:00,
2013-02-11 06:20:00,20.0,11.0,29.73,SSE,157,0.0,2.0,61,0.00,,,0.00,Rainwise IP-100,2013-02-11 11:20:00,
2013-02-11 06:25:00,20.0,11.0,29.73,SSE,157,0.0,1.0,63,0.00,,,0.00,Rainwise IP-100,2013-02-11 11:25:00,
2013-02-11 06:30:00,20.0,11.0,29.73,SSE,157,0.0,1.0,63,0.00,,,0.00,Rainwise IP-100,2013-02-11 11:30:00,
2013-02-11 06:35:00,20.0,11.0,29.73,SSE,157,0.0,0.0,65,0.00,,,0.00,Rainwise IP-100,2013-02-11 11:35:00,
2013-02-11 06:40:00,20.0,11.0,29.73,SSE,157,0.0,1.0,66,0.00,,,0.00,Rainwise IP-100,2013-02-11 11:40:00,
2013-02-11 06:45:00,19.0,11.0,29.73,SSE,157,1.0,1.0,65,0.00,,,0.00,Rainwise IP-100,2013-02-11 11:45:00,
2013-02-11 06:50:00,20.0,11.0,29.73,SSE,157,0.0,1.0,63,0.00,,,0.00,Rainwise IP-100,2013-02-11 11:50:00,
2013-02-11 06:55:00,20.0,11.0,29.73,SSE,157,0.0,2.0,65,0.00,,,0.00,Rainwise IP-100,2013-02-11 11:55:00,
2013-02-11 07:00:00,20.0,11.0,29.73,SSE,157,0.0,1.0,67,0.00,,,0.00,Rainwise IP-100,2013-02-11 12:00:00,
2013-02-11 07:05:00,20.0,11.0,29.73,SSE,157,1.0,2.0,67,0.00,,,0.00,Rainwise IP-100,2013-02-11 12:05:00,
2013-02-11 07:10:00,21.0,14.0,29.71,SSE,157,2.0,3.0,70,0.00,,,0.00,Rainwise IP-100,2013-02-11 12:10:00,
2013-02-11 07:15:00,21.0,14.0,29.71,SSE,157,2.0,3.0,71,0.00,,,0.00,Rainwise IP-100,2013-02-11 12:15:00,
2013-02-11 07:20:00,21.0,11.0,29.71,SSE,157,3.0,4.0,64,0.00,,,0.00,Rainwise IP-100,2013-02-11 12:20:00,
2013-02-11 07:25:00,21.0,11.0,29.71,SE,135,3.0,5.0,64,0.00,,,0.00,Rainwise IP-100,2013-02-11 12:25:00,
2013-02-11 07:30:00,22.0,11.0,29.69,ESE,112,3.0,6.0,61,0.00,,,0.00,Rainwise IP-100,2013-02-11 12:30:00,
2013-02-11 07:35:00,22.0,14.0,29.69,ESE,112,2.0,5.0,64,0.00,,,0.00,Rainwise IP-100,2013-02-11 12:35:00,
2013-02-11 07:40:00,22.0,14.0,29.69,ESE,112,4.0,6.0,65,0.00,,,0.00,Rainwise IP-100,2013-02-11 12:40:00,
2013-02-11 07:45:00,23.0,11.0,29.69,ESE,112,3.0,6.0,62,0.00,,,0.00,Rainwise IP-100,2013-02-11 12:45:00,
2013-02-11 07:50:00,23.0,11.0,29.69,ESE,112,4.0,6.0,62,0.00,,,0.00,Rainwise IP-100,2013-02-11 12:50:00,
2013-02-11 07:55:00,23.0,11.0,29.69,ESE,112,2.0,6.0,60,0.00,,,0.00,Rainwise IP-100,2013-02-11 12:55:00,
2013-02-11 08:00:00,23.0,11.0,29.69,ESE,112,0.0,3.0,61,0.00,,,0.00,Rainwise IP-100,2013-02-11 13:00:00,
2013-02-11 08:05:00,23.0,11.0,29.69,ESE,112,2.0,4.0,60,0.00,,,0.00,Rainwise IP-100,2013-02-11 13:05:00,
2013-02-11 08:10:00,24.0,14.0,29.68,ESE,112,3.0,4.0,62,0.00,,,0.00,Rainwise IP-100,2013-02-11 13:10:00,
2013-02-11 08:15:00,24.0,14.0,29.68,ESE,112,2.0,5.0,59,0.00,,,0.00,Rainwise IP-100,2013-02-11 13:15:00,
2013-02-11 08:20:00,24.0,14.0,29.68,ESE,112,0.0,3.0,62,0.00,,,0.00,Rainwise IP-100,2013-02-11 13:20:00,
2013-02-11 08:25:00,24.0,14.0,29.68,ESE,112,1.0,1.0,63,0.00,,,0.00,Rainwise IP-100,2013-02-11 13:25:00,
2013-02-11 08:30:00,25.0,16.0,29.67,ESE,112,5.0,6.0,61,0.00,,,0.00,Rainwise IP-100,2013-02-11 13:30:00,
2013-02-11 08:35:00,25.0,16.0,29.67,ESE,112,6.0,6.0,63,0.00,,,0.00,Rainwise IP-100,2013-02-11 13:35:00,
2013-02-11 08:40:00,25.0,16.0,29.67,ESE,112,3.0,6.0,64,0.00,,,0.00,Rainwise IP-100,2013-02-11 13:40:00,
2013-02-11 08:45:00,25.0,16.0,29.67,ESE,112,3.0,5.0,66,0.00,,,0.00,Rainwise IP-100,2013-02-11 13:45:00,
2013-02-11 08:50:00,25.0,18.0,29.66,ESE,112,6.0,7.0,68,0.00,,,0.00,Rainwise IP-100,2013-02-11 13:50:00,
2013-02-11 08:55:00,25.0,18.0,29.66,ESE,112,5.0,6.0,70,0.00,,,0.00,Rainwise IP-100,2013-02-11 13:55:00,
2013-02-11 09:00:00,25.0,18.0,29.65,ESE,112,4.0,6.0,70,0.00,,,0.00,Rainwise IP-100,2013-02-11 14:00:00,
2013-02-11 09:05:00,25.0,18.0,29.65,ESE,112,4.0,6.0,72,0.00,,,0.00,Rainwise IP-100,2013-02-11 14:05:00,
2013-02-11 09:10:00,24.0,18.0,29.64,ESE,112,2.0,6.0,74,0.00,,,0.00,Rainwise IP-100,2013-02-11 14:10:00,
2013-02-11 09:15:00,24.0,18.0,29.64,ESE,112,5.0,6.0,75,0.00,,,0.00,Rainwise IP-100,2013-02-11 14:15:00,
2013-02-11 09:20:00,24.0,18.0,29.63,East,90,4.0,6.0,77,0.00,,,0.00,Rainwise IP-100,2013-02-11 14:20:00,
2013-02-11 09:25:00,24.0,18.0,29.63,ESE,112,2.0,6.0,79,0.00,,,0.00,Rainwise IP-100,2013-02-11 14:25:00,
2013-02-11 09:30:00,24.0,18.0,29.62,East,90,6.0,7.0,79,0.00,,,0.00,Rainwise IP-100,2013-02-11 14:30:00,
2013-02-11 09:35:00,24.0,18.0,29.62,East,90,6.0,7.0,80,0.00,,,0.00,Rainwise IP-100,2013-02-11 14:35:00,
2013-02-11 09:40:00,25.0,21.0,29.61,ESE,112,6.0,6.0,82,0.00,,,0.00,Rainwise IP-100,2013-02-11 14:40:00,
2013-02-11 09:45:00,25.0,23.0,29.61,ESE,112,3.0,6.0,84,0.00,,,0.00,Rainwise IP-100,2013-02-11 14:45:00,
2013-02-11 09:50:00,25.0,23.0,29.61,ESE,112,5.0,5.0,85,0.00,,,0.00,Rainwise IP-100,2013-02-11 14:50:00,
2013-02-11 09:55:00,25.0,23.0,29.61,East,90,4.0,6.0,86,0.00,,,0.00,Rainwise IP-100,2013-02-11 14:55:00,
2013-02-11 10:00:00,26.0,23.0,29.59,ESE,112,5.0,7.0,88,0.00,,,0.00,Rainwise IP-100,2013-02-11 15:00:00,
2013-02-11 10:05:00,26.0,23.0,29.59,ESE,112,2.0,5.0,89,0.00,,,0.00,Rainwise IP-100,2013-02-11 15:05:00,
2013-02-11 10:10:00,26.0,23.0,29.59,ESE,112,0.0,3.0,89,0.00,,,0.00,Rainwise IP-100,2013-02-11 15:10:00,
2013-02-11 10:15:00,27.0,24.0,29.59,East,90,0.0,2.0,88,0.00,,,0.00,Rainwise IP-100,2013-02-11 15:15:00,
2013-02-11 10:20:00,27.0,24.0,29.58,North,360,1.0,3.0,89,0.00,,,0.00,Rainwise IP-100,2013-02-11 15:20:00,
2013-02-11 10:25:00,27.0,24.0,29.58,North,360,0.0,2.0,89,0.00,,,0.00,Rainwise IP-100,2013-02-11 15:25:00,
2013-02-11 10:30:00,27.0,26.0,29.57,North,360,2.0,2.0,90,0.00,,,0.00,Rainwise IP-100,2013-02-11 15:30:00,
2013-02-11 10:35:00,28.0,26.0,29.57,North,360,0.0,2.0,90,0.00,,,0.00,Rainwise IP-100,2013-02-11 15:35:00,
2013-02-11 10:40:00,28.0,26.0,29.56,North,360,0.0,2.0,91,0.00,,,0.00,Rainwise IP-100,2013-02-11 15:40:00,
2013-02-11 10:45:00,28.0,26.0,29.56,North,360,0.0,1.0,92,0.00,,,0.00,Rainwise IP-100,2013-02-11 15:45:00,
2013-02-11 10:50:00,29.0,28.0,29.56,North,360,1.0,1.0,93,0.00,,,0.00,Rainwise IP-100,2013-02-11 15:50:00,
2013-02-11 10:55:00,29.0,28.0,29.56,North,360,3.0,4.0,93,0.00,,,0.00,Rainwise IP-100,2013-02-11 15:55:00,
2013-02-11 11:00:00,29.0,28.0,29.54,NNE,22,3.0,4.0,94,0.00,,,0.00,Rainwise IP-100,2013-02-11 16:00:00,
2013-02-11 11:05:00,29.0,28.0,29.54,NNE,22,0.0,4.0,94,0.00,,,0.00,Rainwise IP-100,2013-02-11 16:05:00,
2013-02-11 11:10:00,30.0,29.0,29.53,NE,45,0.0,2.0,95,0.00,,,0.00,Rainwise IP-100,2013-02-11 16:10:00,
2013-02-11 11:15:00,30.0,29.0,29.53,ESE,112,2.0,3.0,95,0.00,,,0.00,Rainwise IP-100,2013-02-11 16:15:00,
2013-02-11 11:20:00,30.0,29.0,29.52,ESE,112,1.0,4.0,95,0.00,,,0.00,Rainwise IP-100,2013-02-11 16:20:00,
2013-02-11 11:25:00,31.0,29.0,29.52,ESE,112,3.0,4.0,95,0.00,,,0.00,Rainwise IP-100,2013-02-11 16:25:00,
2013-02-11 11:30:00,31.0,29.0,29.52,ESE,112,3.0,4.0,95,0.00,,,0.00,Rainwise IP-100,2013-02-11 16:30:00,
2013-02-11 11:35:00,31.0,29.0,29.52,ESE,112,3.0,4.0,95,0.00,,,0.00,Rainwise IP-100,2013-02-11 16:35:00,
2013-02-11 11:40:00,31.0,29.0,29.52,ESE,112,3.0,4.0,95,0.00,,,0.00,Rainwise IP-100,2013-02-11 16:40:00,
2013-02-11 11:45:00,31.0,29.0,29.52,ESE,112,3.0,4.0,95,0.00,,,0.00,Rainwise IP-100,2013-02-11 16:45:00,
2013-02-11 11:50:00,31.0,29.0,29.52,ESE,112,3.0,4.0,95,0.00,,,0.00,Rainwise IP-100,2013-02-11 16:50:00,
2013-02-11 11:55:00,31.0,29.0,29.52,ESE,112,3.0,4.0,95,0.00,,,0.00,Rainwise IP-100,2013-02-11 16:55:00,
2013-02-11 12:00:00,31.0,29.0,29.52,ESE,112,3.0,4.0,95,0.00,,,0.00,Rainwise IP-100,2013-02-11 17:00:00,
2013-02-11 12:05:00,31.0,29.0,29.52,ESE,112,3.0,4.0,95,0.00,,,0.00,Rainwise IP-100,2013-02-11 17:05:00,
2013-02-11 12:10:00,31.0,29.0,29.52,ESE,112,3.0,4.0,95,0.00,,,0.00,Rainwise IP-100,2013-02-11 17:10:00,
2013-02-11 12:15:00,31.0,29.0,29.52,ESE,112,3.0,4.0,95,0.00,,,0.00,Rainwise IP-100,2013-02-11 17:15:00,
2013-02-11 12:20:00,31.0,29.0,29.52,ESE,112,3.0,4.0,95,0.00,,,0.00,Rainwise IP-100,2013-02-11 17:20:00,
2013-02-11 12:25:00,31.0,29.0,29.52,ESE,112,3.0,4.0,95,0.00,,,0.00,Rainwise IP-100,2013-02-11 17:25:00,
2013-02-11 12:30:00,31.0,29.0,29.52,ESE,112,3.0,4.0,95,0.00,,,0.00,Rainwise IP-100,2013-02-11 17:30:00,
2013-02-11 12:35:00,31.0,29.0,29.52,ESE,112,3.0,4.0,95,0.00,,,0.00,Rainwise IP-100,2013-02-11 17:35:00,
2013-02-11 12:40:00,31.0,29.0,29.52,ESE,112,3.0,4.0,95,0.00,,,0.00,Rainwise IP-100,2013-02-11 17:40:00,
2013-02-11 12:45:00,31.0,29.0,29.52,ESE,112,3.0,4.0,95,0.00,,,0.00,Rainwise IP-100,2013-02-11 17:45:00,
2013-02-11 12:50:00,31.0,29.0,29.52,ESE,112,3.0,4.0,95,0.00,,,0.00,Rainwise IP-100,2013-02-11 17:50:00,
2013-02-11 12:55:00,31.0,29.0,29.52,ESE,112,3.0,4.0,95,0.00,,,0.00,Rainwise IP-100,2013-02-11 17:55:00,
2013-02-11 13:00:00,31.0,29.0,29.52,ESE,112,3.0,4.0,95,0.00,,,0.00,Rainwise IP-100,2013-02-11 18:00:00,
2013-02-11 13:05:00,31.0,29.0,29.52,ESE,112,3.0,4.0,95,0.00,,,0.00,Rainwise IP-100,2013-02-11 18:05:00,
2013-02-11 13:10:00,31.0,29.0,29.52,ESE,112,3.0,4.0,95,0.00,,,0.00,Rainwise IP-100,2013-02-11 18:10:00,
2013-02-11 13:15:00,31.0,29.0,29.52,ESE,112,3.0,4.0,95,0.00,,,0.00,Rainwise IP-100,2013-02-11 18:15:00,
2013-02-11 13:20:00,31.0,29.0,29.52,ESE,112,3.0,4.0,95,0.00,,,0.00,Rainwise IP-100,2013-02-11 18:20:00,
2013-02-11 13:21:00,31.0,29.0,29.52,ESE,112,3.0,4.0,95,0.00,,,0.00,Rainwise IP-100,2013-02-11 18:21:00,
2013-02-11 13:26:00,34.0,33.0,29.37,SE,135,5.0,5.0,95,0.84,,,0.14,Rainwise IP-100,2013-02-11 18:26:00,
2013-02-11 13:31:00,34.0,33.0,29.35,SE,135,2.0,7.0,95,0.90,,,0.15,Rainwise IP-100,2013-02-11 18:31:00,
2013-02-11 13:36:00,35.0,33.0,29.35,WSW,247,1.0,3.0,95,0.06,,,0.15,Rainwise IP-100,2013-02-11 18:36:00,
2013-02-11 13:41:00,35.0,33.0,29.34,WSW,247,2.0,4.0,95,0.00,,,0.15,Rainwise IP-100,2013-02-11 18:41:00,
2013-02-11 13:46:00,35.0,33.0,29.34,West,270,2.0,3.0,95,0.06,,,0.16,Rainwise IP-100,2013-02-11 18:46:00,
2013-02-11 13:51:00,35.0,33.0,29.33,WNW,292,0.0,3.0,95,0.06,,,0.16,Rainwise IP-100,2013-02-11 18:51:00,
2013-02-11 13:56:00,35.0,33.0,29.33,WNW,292,0.0,1.0,95,0.00,,,0.16,Rainwise IP-100,2013-02-11 18:56:00,
2013-02-11 14:01:00,35.0,33.0,29.33,WNW,292,0.0,3.0,95,0.06,,,0.17,Rainwise IP-100,2013-02-11 19:01:00,
2013-02-11 14:06:00,35.0,33.0,29.33,WNW,292,3.0,3.0,95,0.06,,,0.17,Rainwise IP-100,2013-02-11 19:06:00,
2013-02-11 14:11:00,35.0,33.0,29.32,WNW,292,2.0,3.0,95,0.06,,,0.18,Rainwise IP-100,2013-02-11 19:11:00,
2013-02-11 14:16:00,35.0,33.0,29.32,WNW,292,3.0,4.0,95,0.06,,,0.18,Rainwise IP-100,2013-02-11 19:16:00,
2013-02-11 14:21:00,34.0,33.0,29.31,West,270,1.0,3.0,95,0.00,,,0.18,Rainwise IP-100,2013-02-11 19:21:00,
2013-02-11 14:26:00,34.0,33.0,29.31,WNW,292,1.0,5.0,95,0.00,,,0.18,Rainwise IP-100,2013-02-11 19:26:00,
2013-02-11 14:31:00,34.0,33.0,29.32,West,270,4.0,6.0,95,0.00,,,0.18,Rainwise IP-100,2013-02-11 19:31:00,
2013-02-11 14:36:00,33.0,32.0,29.32,West,270,3.0,6.0,95,0.00,,,0.19,Rainwise IP-100,2013-02-11 19:36:00,
2013-02-11 14:41:00,33.0,32.0,29.31,West,270,2.0,5.0,95,0.06,,,0.19,Rainwise IP-100,2013-02-11 19:41:00,
2013-02-11 14:46:00,33.0,32.0,29.31,West,270,3.0,4.0,95,0.06,,,0.19,Rainwise IP-100,2013-02-11 19:46:00,
2013-02-11 14:51:00,33.0,32.0,29.31,WNW,292,0.0,6.0,95,0.00,,,0.19,Rainwise IP-100,2013-02-11 19:51:00,
2013-02-11 14:56:00,33.0,32.0,29.31,WNW,292,3.0,6.0,95,0.00,,,0.19,Rainwise IP-100,2013-02-11 19:56:00,
2013-02-11 15:01:00,33.0,32.0,29.31,WNW,292,3.0,4.0,95,0.00,,,0.19,Rainwise IP-100,2013-02-11 20:01:00,
2013-02-11 15:06:00,33.0,32.0,29.31,West,270,1.0,5.0,95,0.00,,,0.19,Rainwise IP-100,2013-02-11 20:06:00,
2013-02-11 15:11:00,33.0,32.0,29.30,WNW,292,3.0,3.0,95,0.06,,,0.20,Rainwise IP-100,2013-02-11 20:11:00,
2013-02-11 15:16:00,33.0,32.0,29.30,NW,315,0.0,6.0,95,0.12,,,0.21,Rainwise IP-100,2013-02-11 20:16:00,
2013-02-11 15:21:00,33.0,32.0,29.29,NW,315,0.0,2.0,95,0.12,,,0.22,Rainwise IP-100,2013-02-11 20:21:00,
2013-02-11 15:26:00,33.0,32.0,29.29,NW,315,1.0,4.0,95,0.12,,,0.23,Rainwise IP-100,2013-02-11 20:26:00,
2013-02-11 15:31:00,33.0,32.0,29.29,WNW,292,2.0,3.0,95,0.06,,,0.23,Rainwise IP-100,2013-02-11 20:31:00,
2013-02-11 15:36:00,33.0,32.0,29.29,WNW,292,4.0,4.0,95,0.00,,,0.23,Rainwise IP-100,2013-02-11 20:36:00,
2013-02-11 15:41:00,32.0,31.0,29.29,West,270,5.0,6.0,95,0.06,,,0.24,Rainwise IP-100,2013-02-11 20:41:00,
2013-02-11 15:46:00,32.0,31.0,29.29,West,270,3.0,6.0,95,0.06,,,0.24,Rainwise IP-100,2013-02-11 20:46:00,
2013-02-11 15:51:00,32.0,31.0,29.28,WNW,292,2.0,6.0,95,0.06,,,0.25,Rainwise IP-100,2013-02-11 20:51:00,
2013-02-11 15:56:00,32.0,31.0,29.28,NW,315,4.0,5.0,95,0.06,,,0.25,Rainwise IP-100,2013-02-11 20:56:00,
2013-02-11 16:01:00,32.0,31.0,29.28,NW,315,3.0,6.0,95,0.00,,,0.26,Rainwise IP-100,2013-02-11 21:01:00,
2013-02-11 16:06:00,32.0,31.0,29.28,NNW,337,0.0,6.0,95,0.06,,,0.26,Rainwise IP-100,2013-02-11 21:06:00,
2013-02-11 16:11:00,32.0,31.0,29.27,North,360,4.0,4.0,95,0.06,,,0.26,Rainwise IP-100,2013-02-11 21:11:00,
2013-02-11 16:16:00,32.0,31.0,29.27,North,360,1.0,6.0,95,0.00,,,0.26,Rainwise IP-100,2013-02-11 21:16:00,
2013-02-11 16:21:00,32.0,31.0,29.25,North,360,0.0,2.0,95,0.00,,,0.26,Rainwise IP-100,2013-02-11 21:21:00,
2013-02-11 16:26:00,32.0,31.0,29.25,North,360,0.0,2.0,95,0.00,,,0.26,Rainwise IP-100,2013-02-11 21:26:00,
2013-02-11 16:31:00,32.0,31.0,29.25,North,360,0.0,1.0,95,0.00,,,0.26,Rainwise IP-100,2013-02-11 21:31:00,
2013-02-11 16:36:00,32.0,31.0,29.25,North,360,0.0,0.0,95,0.00,,,0.26,Rainwise IP-100,2013-02-11 21:36:00,
2013-02-11 16:41:00,32.0,31.0,29.24,North,360,0.0,0.0,95,0.00,,,0.26,Rainwise IP-100,2013-02-11 21:41:00,
2013-02-11 16:46:00,32.0,31.0,29.24,North,360,0.0,0.0,95,0.00,,,0.26,Rainwise IP-100,2013-02-11 21:46:00,
2013-02-11 16:51:00,32.0,31.0,29.23,East,90,0.0,3.0,95,0.00,,,0.26,Rainwise IP-100,2013-02-11 21:51:00,
2013-02-11 16:56:00,32.0,31.0,29.23,East,90,0.0,1.0,95,0.00,,,0.26,Rainwise IP-100,2013-02-11 21:56:00,
2013-02-11 17:01:00,32.0,31.0,29.23,East,90,0.0,0.0,95,0.00,,,0.26,Rainwise IP-100,2013-02-11 22:01:00,
2013-02-11 17:06:00,32.0,31.0,29.23,East,90,0.0,0.0,95,0.00,,,0.26,Rainwise IP-100,2013-02-11 22:06:00,
2013-02-11 17:11:00,32.0,31.0,29.23,East,90,0.0,0.0,95,0.00,,,0.26,Rainwise IP-100,2013-02-11 22:11:00,
2013-02-11 17:16:00,32.0,31.0,29.23,East,90,0.0,0.0,95,0.00,,,0.26,Rainwise IP-100,2013-02-11 22:16:00,
2013-02-11 17:21:00,32.0,31.0,29.23,East,90,0.0,0.0,95,0.00,,,0.26,Rainwise IP-100,2013-02-11 22:21:00,
2013-02-11 17:26:00,32.0,31.0,29.23,East,90,0.0,1.0,95,0.00,,,0.26,Rainwise IP-100,2013-02-11 22:26:00,
2013-02-11 17:31:00,32.0,31.0,29.22,East,90,0.0,1.0,95,0.00,,,0.26,Rainwise IP-100,2013-02-11 22:31:00,
2013-02-11 17:36:00,32.0,31.0,29.22,East,90,0.0,0.0,95,0.00,,,0.26,Rainwise IP-100,2013-02-11 22:36:00,
2013-02-11 17:41:00,32.0,31.0,29.21,East,90,0.0,2.0,95,0.00,,,0.26,Rainwise IP-100,2013-02-11 22:41:00,
2013-02-11 17:46:00,32.0,31.0,29.21,East,90,0.0,1.0,95,0.00,,,0.26,Rainwise IP-100,2013-02-11 22:46:00,
2013-02-11 17:51:00,32.0,31.0,29.21,WNW,292,0.0,4.0,95,0.00,,,0.26,Rainwise IP-100,2013-02-11 22:51:00,
2013-02-11 17:56:00,32.0,31.0,29.21,WNW,292,2.0,3.0,95,0.00,,,0.26,Rainwise IP-100,2013-02-11 22:56:00,
2013-02-11 18:01:00,32.0,31.0,29.21,NNW,337,4.0,6.0,95,0.00,,,0.26,Rainwise IP-100,2013-02-11 23:01:00,
2013-02-11 18:06:00,32.0,31.0,29.21,WNW,292,3.0,6.0,95,0.00,,,0.26,Rainwise IP-100,2013-02-11 23:06:00,
2013-02-11 18:11:00,32.0,31.0,29.22,West,270,3.0,4.0,95,0.00,,,0.26,Rainwise IP-100,2013-02-11 23:11:00,
2013-02-11 18:16:00,32.0,31.0,29.22,WNW,292,0.0,6.0,95,0.00,,,0.26,Rainwise IP-100,2013-02-11 23:16:00,
2013-02-11 18:21:00,32.0,31.0,29.22,WNW,292,0.0,3.0,95,0.00,,,0.26,Rainwise IP-100,2013-02-11 23:21:00,
2013-02-11 18:26:00,32.0,31.0,29.22,WNW,292,0.0,1.0,95,0.00,,,0.26,Rainwise IP-100,2013-02-11 23:26:00,
2013-02-11 18:31:00,32.0,31.0,29.21,WNW,292,3.0,4.0,95,0.00,,,0.26,Rainwise IP-100,2013-02-11 23:31:00,
2013-02-11 18:36:00,32.0,31.0,29.21,NW,315,1.0,7.0,95,0.00,,,0.26,Rainwise IP-100,2013-02-11 23:36:00,
2013-02-11 18:41:00,32.0,31.0,29.21,NW,315,2.0,4.0,95,0.00,,,0.26,Rainwise IP-100,2013-02-11 23:41:00,
2013-02-11 18:46:00,32.0,31.0,29.21,NW,315,4.0,4.0,95,0.00,,,0.26,Rainwise IP-100,2013-02-11 23:46:00,
2013-02-11 18:51:00,32.0,31.0,29.20,NW,315,5.0,6.0,95,0.00,,,0.26,Rainwise IP-100,2013-02-11 23:51:00,
2013-02-11 18:56:00,32.0,31.0,29.20,NW,315,2.0,6.0,95,0.00,,,0.26,Rainwise IP-100,2013-02-11 23:56:00,
2013-02-11 19:01:00,32.0,31.0,29.21,WNW,292,2.0,6.0,95,0.00,,,0.26,Rainwise IP-100,2013-02-12 00:01:00,
2013-02-11 19:06:00,32.0,31.0,29.21,WNW,292,1.0,5.0,95,0.00,,,0.26,Rainwise IP-100,2013-02-12 00:06:00,
2013-02-11 19:11:00,32.0,31.0,29.20,WNW,292,1.0,5.0,95,0.00,,,0.26,Rainwise IP-100,2013-02-12 00:11:00,
2013-02-11 19:16:00,32.0,31.0,29.20,WNW,292,0.0,4.0,95,0.00,,,0.26,Rainwise IP-100,2013-02-12 00:16:00,
2013-02-11 19:21:00,32.0,31.0,29.20,NW,315,4.0,4.0,95,0.00,,,0.26,Rainwise IP-100,2013-02-12 00:21:00,
2013-02-11 19:26:00,32.0,31.0,29.20,NNW,337,0.0,5.0,95,0.00,,,0.26,Rainwise IP-100,2013-02-12 00:26:00,
2013-02-11 19:31:00,32.0,31.0,29.19,NNE,22,0.0,1.0,95,0.06,,,0.27,Rainwise IP-100,2013-02-12 00:31:00,
2013-02-11 19:36:00,32.0,31.0,29.19,NNE,22,0.0,1.0,95,0.06,,,0.27,Rainwise IP-100,2013-02-12 00:36:00,
2013-02-11 19:41:00,32.0,31.0,29.18,NNE,22,0.0,0.0,95,0.00,,,0.27,Rainwise IP-100,2013-02-12 00:41:00,
2013-02-11 19:46:00,32.0,31.0,29.18,NNE,22,0.0,1.0,95,0.00,,,0.27,Rainwise IP-100,2013-02-12 00:46:00,
2013-02-11 19:51:00,32.0,31.0,29.18,NNE,22,0.0,2.0,95,0.00,,,0.27,Rainwise IP-100,2013-02-12 00:51:00,
2013-02-11 19:57:00,32.0,31.0,29.18,NNE,22,0.0,2.0,95,0.00,,,0.27,Rainwise IP-100,2013-02-12 00:57:00,
2013-02-11 20:02:00,32.0,31.0,29.17,NNE,22,0.0,3.0,95,0.00,,,0.27,Rainwise IP-100,2013-02-12 01:02:00,
2013-02-11 20:07:00,32.0,31.0,29.17,North,360,1.0,4.0,95,0.00,,,0.27,Rainwise IP-100,2013-02-12 01:07:00,
2013-02-11 20:12:00,32.0,31.0,29.17,North,360,2.0,3.0,95,0.00,,,0.27,Rainwise IP-100,2013-02-12 01:12:00,
2013-02-11 20:17:00,32.0,31.0,29.17,North,360,2.0,4.0,95,0.00,,,0.27,Rainwise IP-100,2013-02-12 01:17:00,
2013-02-11 20:22:00,32.0,31.0,29.16,North,360,0.0,3.0,95,0.00,,,0.27,Rainwise IP-100,2013-02-12 01:22:00,
2013-02-11 20:27:00,32.0,31.0,29.16,North,360,0.0,0.0,95,0.00,,,0.27,Rainwise IP-100,2013-02-12 01:27:00,
2013-02-11 20:32:00,32.0,31.0,29.16,North,360,0.0,0.0,95,0.00,,,0.27,Rainwise IP-100,2013-02-12 01:32:00,
2013-02-11 20:37:00,32.0,31.0,29.16,North,360,0.0,0.0,95,0.00,,,0.27,Rainwise IP-100,2013-02-12 01:37:00,
2013-02-11 20:42:00,32.0,31.0,29.15,North,360,0.0,0.0,95,0.00,,,0.27,Rainwise IP-100,2013-02-12 01:42:00,
2013-02-11 20:47:00,32.0,31.0,29.15,North,360,0.0,0.0,95,0.00,,,0.27,Rainwise IP-100,2013-02-12 01:47:00,
2013-02-11 20:52:00,32.0,31.0,29.15,North,360,1.0,1.0,95,0.00,,,0.27,Rainwise IP-100,2013-02-12 01:52:00,
2013-02-11 20:57:00,32.0,31.0,29.15,North,360,0.0,1.0,95,0.00,,,0.27,Rainwise IP-100,2013-02-12 01:57:00,
2013-02-11 21:02:00,32.0,31.0,29.15,North,360,0.0,1.0,95,0.00,,,0.27,Rainwise IP-100,2013-02-12 02:02:00,
2013-02-11 21:07:00,32.0,31.0,29.15,North,360,1.0,0.0,95,0.00,,,0.27,Rainwise IP-100,2013-02-12 02:07:00,
2013-02-11 21:12:00,32.0,31.0,29.15,North,360,0.0,2.0,95,0.00,,,0.27,Rainwise IP-100,2013-02-12 02:12:00,
2013-02-11 21:17:00,32.0,31.0,29.15,NW,315,1.0,5.0,95,0.00,,,0.27,Rainwise IP-100,2013-02-12 02:17:00,
2013-02-11 21:22:00,32.0,31.0,29.14,WNW,292,0.0,3.0,95,0.00,,,0.27,Rainwise IP-100,2013-02-12 02:22:00,
2013-02-11 21:27:00,32.0,31.0,29.14,WNW,292,4.0,4.0,95,0.00,,,0.27,Rainwise IP-100,2013-02-12 02:27:00,
2013-02-11 21:32:00,32.0,31.0,29.15,West,270,3.0,6.0,95,0.00,,,0.27,Rainwise IP-100,2013-02-12 02:32:00,
2013-02-11 21:37:00,32.0,31.0,29.15,West,270,3.0,5.0,95,0.00,,,0.27,Rainwise IP-100,2013-02-12 02:37:00,
2013-02-11 21:42:00,32.0,31.0,29.15,WNW,292,2.0,6.0,95,0.00,,,0.27,Rainwise IP-100,2013-02-12 02:42:00,
2013-02-11 21:47:00,32.0,31.0,29.15,WNW,292,0.0,6.0,95,0.00,,,0.27,Rainwise IP-100,2013-02-12 02:47:00,
2013-02-11 21:52:00,32.0,31.0,29.16,WNW,292,6.0,6.0,95,0.00,,,0.27,Rainwise IP-100,2013-02-12 02:52:00,
2013-02-11 21:57:00,32.0,31.0,29.16,WSW,247,0.0,7.0,95,0.00,,,0.27,Rainwise IP-100,2013-02-12 02:57:00,
2013-02-11 22:02:00,32.0,31.0,29.15,West,270,0.0,5.0,95,0.00,,,0.27,Rainwise IP-100,2013-02-12 03:02:00,
2013-02-11 22:07:00,32.0,31.0,29.15,West,270,1.0,5.0,95,0.00,,,0.27,Rainwise IP-100,2013-02-12 03:07:00,
2013-02-11 22:12:00,32.0,31.0,29.15,WSW,247,0.0,3.0,95,0.00,,,0.27,Rainwise IP-100,2013-02-12 03:12:00,
2013-02-11 22:17:00,32.0,31.0,29.15,WSW,247,1.0,2.0,95,0.00,,,0.27,Rainwise IP-100,2013-02-12 03:17:00,
2013-02-11 22:22:00,32.0,31.0,29.14,WSW,247,0.0,2.0,95,0.00,,,0.27,Rainwise IP-100,2013-02-12 03:22:00,
2013-02-11 22:27:00,32.0,31.0,29.14,WSW,247,0.0,1.0,95,0.00,,,0.27,Rainwise IP-100,2013-02-12 03:27:00,
2013-02-11 22:32:00,32.0,31.0,29.13,WSW,247,0.0,1.0,95,0.00,,,0.27,Rainwise IP-100,2013-02-12 03:32:00,
2013-02-11 22:37:00,32.0,31.0,29.13,WSW,247,0.0,2.0,95,0.00,,,0.27,Rainwise IP-100,2013-02-12 03:37:00,
2013-02-11 22:42:00,32.0,31.0,29.12,WSW,247,0.0,1.0,95,0.00,,,0.27,Rainwise IP-100,2013-02-12 03:42:00,
2013-02-11 22:47:00,32.0,31.0,29.12,WNW,292,4.0,5.0,95,0.00,,,0.27,Rainwise IP-100,2013-02-12 03:47:00,
2013-02-11 22:52:00,32.0,31.0,29.13,WSW,247,0.0,6.0,95,0.00,,,0.27,Rainwise IP-100,2013-02-12 03:52:00,
2013-02-11 22:57:00,32.0,31.0,29.13,West,270,1.0,4.0,95,0.00,,,0.27,Rainwise IP-100,2013-02-12 03:57:00,
2013-02-11 23:02:00,32.0,31.0,29.12,West,270,4.0,4.0,95,0.00,,,0.27,Rainwise IP-100,2013-02-12 04:02:00,
2013-02-11 23:07:00,32.0,31.0,29.12,West,270,2.0,5.0,95,0.00,,,0.27,Rainwise IP-100,2013-02-12 04:07:00,
2013-02-11 23:12:00,32.0,31.0,29.13,WNW,292,4.0,5.0,95,0.00,,,0.27,Rainwise IP-100,2013-02-12 04:12:00,
2013-02-11 23:17:00,32.0,31.0,29.13,West,270,2.0,5.0,95,0.00,,,0.27,Rainwise IP-100,2013-02-12 04:17:00,
2013-02-11 23:22:00,32.0,31.0,29.13,West,270,2.0,5.0,95,0.00,,,0.27,Rainwise IP-100,2013-02-12 04:22:00,
2013-02-11 23:27:00,32.0,31.0,29.13,West,270,2.0,7.0,95,0.00,,,0.27,Rainwise IP-100,2013-02-12 04:27:00,
2013-02-11 23:32:00,32.0,31.0,29.13,West,270,2.0,6.0,95,0.00,,,0.27,Rainwise IP-100,2013-02-12 04:32:00,
2013-02-11 23:37:00,32.0,31.0,29.13,WNW,292,5.0,5.0,95,0.00,,,0.27,Rainwise IP-100,2013-02-12 04:37:00,
2013-02-11 23:42:00,32.0,31.0,29.13,WNW,292,3.0,7.0,95,0.00,,,0.27,Rainwise IP-100,2013-02-12 04:42:00,
2013-02-11 23:47:00,32.0,31.0,29.13,NW,315,2.0,6.0,95,0.00,,,0.27,Rainwise IP-100,2013-02-12 04:47:00,
2013-02-11 23:52:00,32.0,31.0,29.14,West,270,6.0,7.0,95,0.00,,,0.27,Rainwise IP-100,2013-02-12 04:52:00,
2013-02-11 23:57:00,32.0,31.0,29.14,West,270,4.0,7.0,95,0.00,,,0.27,Rainwise IP-100,2013-02-12 04:57:00,